COSMOS 252 DEB, 3569

Orbit data source: Space-Track

COSMOS 252 DEB, 3569 is space debris in LEO originally from a launch on Fri, 01 Nov 1968 UTC launched from the Tyuratam Missile And Space Complex (TTMTR). Debris objects in space refer to the collection of defunct objects orbiting the Earth. Examples of debris include non-operational satellites, rocket bodies, and fragments generated from explosions, collisions, or faulty payload assembly.

Loading next visibility...
Identifier
3569, 1968-097V
Orbit
LEO
Country
Flag of CISCIS
Related business
Manufacturer
Unknown
Mission
Spacecraft
Bus & Motor
Unknown
Mass
Unknown
Launch date (UTC)
1968-11-01 (57 years ago)
Launch vehicle
Unknown
Launch site
Tyuratam Missile And Space Complex (TTMTR)
Object type
Payload
Rocket body
Debris
Shape & HBR
Unknown shape, 0.1 m
Radar Cross Section
Small (<0.1 m²)

Expand to show TLE details & history
Last TLE update: 5 hours ago

TLE from 5 hours ago
0 COSMOS 252 DEB
1 03569U 68097V   26119.25790646  .00002903  00000-0  56038-3 0  9990
2 03569  62.2892 160.9690 0561976 124.0006 241.5746 13.96560248812017
Epoch: 2026-04-29T06:11Z
TLE epoch observation values (Epoch: 2026-04-29T06:11:23.118Z)
Latitude
-0.00001°
Longitude
-149.09878°
Altitude
1,119.404 km
Speed
7.187 km/s
True Right ascension
10h 43m 52s
True Declination
0° 00' 00"
Sunlit
Object was in full shadow at epoch
Visualization orbit readout
Latitude
Unknown
Longitude
Unknown
Altitude
Unknown
Speed
Unknown
Apparent Right ascension
Unknown
Apparent Declination
Unknown
Sunlit
N/A
Visualization observer readout
Local Sidereal Time
19:04:23
Azimuth
Unknown
Elevation
Unknown
Doppler factor
Unknown
Orbital elements
Apogee altitude
1,313.944 km
Perigee altitude
495.392 km
Semi-major axis
7,282.805 km
Eccentricity
0.0562
Inclination
62.2892°
RAAN
160.969°
Arg. of periapsis
124.0006°
True anomaly
236.10299°
Mean anomaly
241.5746°
Eccentric anomaly
238.81985°
Mean motion
3.49217 °/min
Orbital period
103.09 mins
BSTAR
0.00056038
Loading maneuver chart data...
Computing Atmospheric mass density...

Documentation

Showing up to 5 results
|